Location: Fours
(44.3167°N, 6.7000°E)
Time: 12:08:38
(UTC+00:00)

H-2A R/B - Pass Details

Date: 30 November 2020
Orbit: 734 x 836 km, 98.2° (Epoch: 25 January)

Event Time Altitude Azimuth Distance (km) Brightness Sun altitude
Rises 19:39:29 0° 204° (SSW) 3,324 5.5 -39.4°
Enters shadow 19:40:02 - 207° (SSW) 3,134 5.4 -39.5°
Exits shadow 19:47:18 19° 284° (WNW) 1,800 4.4 -40.7°
Drops below altitude 10° 19:50:04 10° 315° (NW) 2,344 5.0 -41.2°
Sets 19:52:58 0° 332° (NNW) 3,258 5.7 -41.7°
